Weather History for Sitka, AK

Change the Weather History Date:

Wednesday, November 21, 2012

  Actual Average Record
Temperature  
Mean Temperature 38 °F -  
Max Temperature 39 °F 41 °F 55 °F (1949)
Min Temperature 37 °F 33 °F 14 °F (1963)
Degree Days  
Heating Degree Days 27    
Moisture  
Dew Point 25 °F    
Average Humidity 60    
Maximum Humidity 68    
Minimum Humidity 46    
Precipitation  
Precipitation 0.00 in - - ()
Sea Level Pressure  
Sea Level Pressure 29.64 in    
Wind  
Wind Speed 9 mph (ESE)    
Max Wind Speed 24 mph    
Max Gust Speed 32 mph    
Visibility 10 miles    
Events      
Averages and records for this station are not official NWS values.
T = Trace of Precipitation, MM = Missing Value Source: NWS Daily Summary

Daily Weather History Graph

Daily Weather History Graph

Search for Another Location

Airport:

Trip Planner

Search our weather history database for the weather conditions in past years. The results will help you decide how hot, cold, wet, or windy it might be!

Date:

Astronomy

Nov. 21, 2012 Rise Set
Actual Time 7:57 AM AKST 3:37 PM AKST
Civil Twilight 7:11 AM AKST 4:22 PM AKST
Nautical Twilight 6:23 AM AKST 5:10 PM AKST
Astronomical Twilight 5:38 AM AKST 5:56 PM AKST
Moon 1:03 PM AKST (11/21) 12:10 AM AKST (11/21)
Length of Visible Light 9h 10m
Length of Day
7h 40m
Waxing Gibbous, 63% of the Moon is Illuminated
Nov 21
Waxing Gibbous
Nov 28
Full
Dec 6
Last Quarter
Dec 12
New
Dec 19
First Quarter

Hourly Weather History & Observations

Time (AKST) Temp. Windchill Dew Point Humidity Pressure Visibility Wind Dir Wind Speed Gust Speed Precip Events Conditions
12:53 AM 37.9 °F 32.1 °F 19.9 °F 48% 29.41 in 10.0 mi ESE 8.1 mph - N/A   Overcast
1:53 AM 39.0 °F 32.8 °F 19.9 °F 46% 29.42 in 10.0 mi ESE 9.2 mph - N/A   Overcast
3:53 AM 37.9 °F 35.5 °F 21.0 °F 51% 29.45 in 10.0 mi North 3.5 mph - N/A   Overcast
4:53 AM 39.0 °F 34.8 °F 24.1 °F 55% 29.47 in 10.0 mi West 5.8 mph - N/A   Overcast
5:53 AM 37.9 °F 31.5 °F 21.9 °F 53% 29.49 in 10.0 mi East 9.2 mph - N/A   Overcast
6:53 AM 37.9 °F 30.9 °F 21.0 °F 51% 29.51 in 10.0 mi ESE 10.4 mph - N/A   Overcast
7:53 AM 37.0 °F 29.3 °F 23.0 °F 57% 29.54 in 10.0 mi East 11.5 mph 21.9 mph N/A   Overcast
8:53 AM 37.0 °F 30.4 °F 25.0 °F 62% 29.57 in 10.0 mi ESE 9.2 mph - N/A   Overcast
9:53 AM 37.0 °F - 27.0 °F 67% 29.59 in 10.0 mi Calm Calm - N/A   Overcast
10:53 AM 37.9 °F - 27.0 °F 65% 29.61 in 10.0 mi Calm Calm - N/A   Overcast
11:53 AM 37.9 °F - 28.0 °F 68% 29.63 in 10.0 mi Calm Calm - N/A   Overcast
12:53 PM 39.0 °F - 27.0 °F 62% 29.65 in 10.0 mi Calm Calm - N/A   Overcast
1:06 PM 39.2 °F 37.0 °F 26.6 °F 61% 29.65 in 10.0 mi NNW 3.5 mph - N/A   Overcast
1:50 PM 39.2 °F 33.6 °F 26.6 °F 61% 29.67 in 10.0 mi East 8.1 mph - N/A   Overcast
1:53 PM 39.0 °F 32.3 °F 27.0 °F 62% 29.68 in 10.0 mi East 10.4 mph - N/A   Overcast
2:53 PM 39.0 °F 34.8 °F 28.9 °F 67% 29.69 in 10.0 mi East 5.8 mph - N/A   Mostly Cloudy
3:53 PM 39.0 °F 32.3 °F 27.0 °F 62% 29.71 in 10.0 mi East 10.4 mph - N/A   Mostly Cloudy
4:53 PM 37.0 °F 27.7 °F 27.0 °F 67% 29.72 in 10.0 mi ESE 16.1 mph 23.0 mph N/A   Scattered Clouds
5:53 PM 37.9 °F 28.2 °F 26.1 °F 62% 29.73 in 10.0 mi ESE 18.4 mph 24.2 mph N/A   Scattered Clouds
6:53 PM 37.9 °F 28.5 °F 25.0 °F 60% 29.75 in 10.0 mi ESE 17.3 mph 24.2 mph N/A   Clear
7:53 PM 37.9 °F 28.9 °F 27.0 °F 65% 29.77 in 10.0 mi East 16.1 mph 24.2 mph N/A   Clear
8:53 PM 37.9 °F 28.2 °F 27.0 °F 65% 29.79 in 10.0 mi ESE 18.4 mph 25.3 mph N/A   Clear
9:53 PM 39.0 °F 29.6 °F 26.1 °F 60% 29.80 in 10.0 mi ESE 18.4 mph 23.0 mph N/A   Clear
10:53 PM 39.9 °F 30.2 °F 27.0 °F 60% 29.80 in 10.0 mi SE 20.7 mph - N/A   Clear
11:53 PM 39.9 °F 29.5 °F 25.0 °F 55% 29.79 in 10.0 mi ESE 24.2 mph 32.2 mph N/A   Clear